Location: Recife
(8.0585°S, 34.8848°W)
Time: 10:34:18
(UTC-03:00)

Courier 1B Rocket - Pass Details

Date: 15 April 2026
Orbit: 920 x 1201 km, 28.2° (Epoch: 13 May)

Event Time Altitude Azimuth Distance (km) Brightness Sun altitude
Rises 02:51:17 0° 321° (NW) 3,536 - -37.8°
Reaches altitude 10° 02:54:11 10° 332° (NNW) 2,600 - -37.0°
Exits shadow 02:59:15 30° 27° (NNE) 1,617 6.3 -35.8°
Maximum altitude 02:59:31 30° 31° (NNE) 1,616 6.3 -35.7°
Drops below altitude 10° 03:05:02 10° 90° (E) 2,694 8.1 -34.4°
Sets 03:08:05 0° 101° (E) 3,684 9.0 -33.6°
